Location: Unspecified
(47.6578°N, 23.5640°E)
Time: 14:32:05
(UTC+02:00)

ISS - Pass Details

Date: 09 December 2017
Orbit: 403 x 407 km, 51.6° (Epoch: 12 December)

Event Time Altitude Azimuth Distance (km) Brightness Sun altitude
Rises 17:43:13 0° 285° (WNW) 2,331 1.0 -11.1°
Reaches altitude 10° 17:45:23 10° 293° (WNW) 1,469 -0.3 -11.5°
Maximum altitude 17:48:31 40° 4° (N) 616 -3.1 -11.9°
Enters shadow 17:50:17 21° 64° (ENE) 967 -2.6 -12.2°
